Weather History for Kankakee, IL

Change the Weather History Date:

Thursday, October 6, 2011

  Actual Average Record
Temperature  
Mean Temperature 64 °F -  
Max Temperature 82 °F 68 °F 91 °F (2007)
Min Temperature 46 °F 42 °F 29 °F (1980)
Degree Days  
Heating Degree Days 1    
Growing Degree Days 14 (Base 50)    
Moisture  
Dew Point 48 °F    
Average Humidity 63    
Maximum Humidity 100    
Minimum Humidity 32    
Precipitation  
Precipitation 0.00 in - - ()
Sea Level Pressure  
Sea Level Pressure 30.24 in    
Wind  
Wind Speed 2 mph (SE)    
Max Wind Speed 10 mph    
Max Gust Speed -    
Visibility 10 miles    
Events      
Averages and records for this station are not official NWS values.
T = Trace of Precipitation, MM = Missing Value Source: NWS Daily Summary

Daily Weather History Graph

Daily Weather History Graph

Search for Another Location

Airport:

Trip Planner

Search our weather history database for the weather conditions in past years. The results will help you decide how hot, cold, wet, or windy it might be!

Date:

Astronomy

Oct. 06, 2011 Rise Set
Actual Time 6:52 AM CDT 6:25 PM CDT
Civil Twilight 6:25 AM CDT 6:52 PM CDT
Nautical Twilight 5:53 AM CDT 7:24 PM CDT
Astronomical Twilight 5:21 AM CDT 7:56 PM CDT
Moon 3:41 PM CDT (10/6) 1:38 AM CDT (10/6)
Length of Visible Light 12h 27m
Length of Day
11h 32m
Waxing Gibbous, 75% of the Moon is Illuminated
Oct 6
Waxing Gibbous
Oct 11
Full
Oct 19
Last Quarter
Oct 26
New
Nov 2
First Quarter

Hourly Weather History & Observations

Time (CDT) Temp. Windchill Dew Point Humidity Pressure Visibility Wind Dir Wind Speed Gust Speed Precip Events Conditions
12:15 AM 51.8 °F - 50.0 °F 94% 30.22 in 10.0 mi Calm Calm - N/A   Clear
12:35 AM 53.6 °F - 48.2 °F 82% 30.22 in 10.0 mi Calm Calm - N/A   Clear
12:55 AM 51.8 °F - 46.4 °F 82% 30.22 in 10.0 mi East 3.5 mph - N/A   Clear
1:15 AM 51.8 °F - 46.4 °F 82% 30.22 in 10.0 mi Calm Calm - N/A   Clear
1:35 AM 51.8 °F - 46.4 °F 82% 30.22 in 10.0 mi Calm Calm - N/A   Clear
1:55 AM 50.0 °F - 46.4 °F 87% 30.23 in 10.0 mi Calm Calm - N/A   Clear
2:15 AM 51.8 °F - 48.2 °F 88% 30.23 in 10.0 mi Calm Calm - N/A   Clear
2:35 AM 51.8 °F - 46.4 °F 82% 30.23 in 10.0 mi Calm Calm - N/A   Clear
2:55 AM 50.0 °F - 46.4 °F 87% 30.23 in 10.0 mi Calm Calm - N/A   Clear
3:15 AM 50.0 °F - 46.4 °F 87% 30.23 in 10.0 mi Calm Calm - N/A   Clear
3:35 AM 50.0 °F - 46.4 °F 87% 30.23 in 10.0 mi Calm Calm - N/A   Clear
3:55 AM 48.2 °F - 46.4 °F 93% 30.24 in 7.0 mi Calm Calm - N/A   Clear
4:15 AM 46.4 °F - 46.4 °F 100% 30.24 in 7.0 mi Calm Calm - N/A   Clear
4:35 AM 46.4 °F - 46.4 °F 100% 30.24 in 7.0 mi Calm Calm - N/A   Clear
4:55 AM 48.2 °F - 46.4 °F 93% 30.25 in 10.0 mi ESE 3.5 mph - N/A   Clear
5:15 AM 46.4 °F 44.3 °F 44.6 °F 93% 30.26 in 10.0 mi ESE 4.6 mph - N/A   Clear
5:35 AM 48.2 °F - 44.6 °F 87% 30.26 in 10.0 mi ESE 3.5 mph - N/A   Clear
5:55 AM 50.0 °F - 44.6 °F 82% 30.27 in 10.0 mi Calm Calm - N/A   Clear
6:15 AM 48.2 °F - 44.6 °F 87% 30.27 in 10.0 mi Calm Calm - N/A   Clear
6:35 AM 46.4 °F - 44.6 °F 93% 30.27 in 10.0 mi Calm Calm - N/A   Clear
6:55 AM 46.4 °F - 44.6 °F 93% 30.28 in 7.0 mi Calm Calm - N/A   Clear
7:15 AM 46.4 °F 45.2 °F 44.6 °F 93% 30.28 in 7.0 mi East 3.5 mph - N/A   Clear
7:35 AM 48.2 °F - 44.6 °F 87% 30.28 in 10.0 mi East 3.5 mph - N/A   Clear
7:55 AM 50.0 °F - 46.4 °F 87% 30.29 in 10.0 mi Calm Calm - N/A   Clear
8:15 AM 53.6 °F - 48.2 °F 82% 30.29 in 10.0 mi Calm Calm - N/A   Clear
8:35 AM 55.4 °F - 50.0 °F 82% 30.29 in 10.0 mi Calm Calm - N/A   Clear
8:55 AM 59.0 °F - 50.0 °F 72% 30.30 in 10.0 mi Calm Calm - N/A   Clear
9:15 AM 62.6 °F - 51.8 °F 68% 30.30 in 10.0 mi Calm Calm - N/A   Clear
9:35 AM 64.4 °F - 51.8 °F 64% 30.30 in 10.0 mi SSE 3.5 mph - N/A   Clear
9:55 AM 68.0 °F - 53.6 °F 60% 30.30 in 10.0 mi SSE 3.5 mph - N/A   Clear
10:15 AM 69.8 °F - 53.6 °F 56% 30.29 in 10.0 mi SSE 3.5 mph - N/A   Clear
11:15 AM 75.2 °F - 51.8 °F 44% 30.28 in 10.0 mi South 4.6 mph - N/A   Clear
11:35 AM 77.0 °F - 51.8 °F 41% 30.27 in 10.0 mi SE 6.9 mph - N/A   Clear
11:55 AM 77.0 °F - 51.8 °F 41% 30.27 in 10.0 mi SSE 8.1 mph - N/A   Clear
12:15 PM 78.8 °F - 50.0 °F 36% 30.26 in 10.0 mi ESE 5.8 mph - N/A   Clear
12:35 PM 78.8 °F - 50.0 °F 36% 30.26 in 10.0 mi SE 8.1 mph - N/A   Clear
12:55 PM 78.8 °F - 50.0 °F 36% 30.24 in 10.0 mi ESE 9.2 mph - N/A   Clear
1:15 PM 78.8 °F - 48.2 °F 34% 30.24 in 10.0 mi SSE 8.1 mph - N/A   Clear
1:35 PM 78.8 °F - 48.2 °F 34% 30.23 in 10.0 mi Calm Calm - N/A   Clear
1:55 PM 80.6 °F - 48.2 °F 32% 30.23 in 10.0 mi SSE 9.2 mph - N/A   Clear
2:15 PM 80.6 °F - 48.2 °F 32% 30.23 in 10.0 mi South 6.9 mph - N/A   Clear
2:35 PM 80.6 °F - 50.0 °F 34% 30.22 in 10.0 mi ESE 5.8 mph - N/A   Clear
2:55 PM 80.6 °F - 48.2 °F 32% 30.22 in 10.0 mi SSE 10.4 mph - N/A   Clear
3:15 PM 82.4 °F - 50.0 °F 32% 30.22 in 10.0 mi SSE 9.2 mph - N/A   Clear
3:35 PM 80.6 °F - 48.2 °F 32% 30.22 in 10.0 mi SSE 5.8 mph - N/A   Clear
3:55 PM 80.6 °F - 48.2 °F 32% 30.21 in 10.0 mi SE 6.9 mph - N/A   Clear
4:15 PM 80.6 °F - 48.2 °F 32% 30.21 in 10.0 mi SSE 8.1 mph - N/A   Clear
4:35 PM 80.6 °F - 48.2 °F 32% 30.21 in 10.0 mi SE 5.8 mph - N/A   Clear
4:55 PM 80.6 °F - 48.2 °F 32% 30.21 in 10.0 mi SE 8.1 mph - N/A   Clear
5:15 PM 80.6 °F - 48.2 °F 32% 30.21 in 10.0 mi SE 9.2 mph - N/A   Clear
5:35 PM 78.8 °F - 48.2 °F 34% 30.21 in 10.0 mi SE 6.9 mph - N/A   Clear
5:55 PM 77.0 °F - 48.2 °F 36% 30.21 in 10.0 mi SE 5.8 mph - N/A   Clear
6:15 PM 77.0 °F - 48.2 °F 36% 30.21 in 10.0 mi SE 4.6 mph - N/A   Clear
6:35 PM 73.4 °F - 48.2 °F 41% 30.21 in 10.0 mi SE 3.5 mph - N/A   Clear
6:55 PM 71.6 °F - 50.0 °F 46% 30.21 in 10.0 mi ESE 4.6 mph - N/A   Clear
7:15 PM 69.8 °F - 50.0 °F 49% 30.21 in 10.0 mi ESE 4.6 mph - N/A   Clear
7:35 PM 69.8 °F - 50.0 °F 49% 30.22 in 10.0 mi ESE 6.9 mph - N/A   Clear
7:55 PM 68.0 °F - 50.0 °F 52% 30.22 in 10.0 mi ESE 5.8 mph - N/A   Clear
8:15 PM 66.2 °F - 50.0 °F 56% 30.23 in 10.0 mi SE 4.6 mph - N/A   Clear
8:35 PM 62.6 °F - 50.0 °F 63% 30.23 in 10.0 mi ESE 5.8 mph - N/A   Clear
8:55 PM 62.6 °F - 51.8 °F 68% 30.23 in 10.0 mi SE 4.6 mph - N/A   Clear
9:15 PM 64.4 °F - 50.0 °F 59% 30.23 in 10.0 mi SE 5.8 mph - N/A   Clear
9:35 PM 64.4 °F - 50.0 °F 59% 30.24 in 10.0 mi SE 5.8 mph - N/A   Clear
9:55 PM 64.4 °F - 50.0 °F 59% 30.24 in 10.0 mi SE 5.8 mph - N/A   Clear
10:15 PM 62.6 °F - 50.0 °F 63% 30.25 in 10.0 mi SE 4.6 mph - N/A   Clear
10:35 PM 60.8 °F - 50.0 °F 68% 30.26 in 10.0 mi SE 6.9 mph - N/A   Clear
10:55 PM 60.8 °F - 50.0 °F 68% 30.26 in 10.0 mi ESE 4.6 mph - N/A   Clear
11:15 PM 60.8 °F - 50.0 °F 68% 30.25 in 10.0 mi SE 4.6 mph - N/A   Clear
11:35 PM 60.8 °F - 50.0 °F 68% 30.26 in 10.0 mi SE 5.8 mph - N/A   Clear
11:55 PM 60.8 °F - 50.0 °F 68% 30.26 in 10.0 mi SE 5.8 mph - N/A   Clear